DECAYED

STARLINK-6103, 56114 (Decayed)

Orbit data source: Space-Track

STARLINK-6103, 56114 was a payload satellite owned by SpaceX/Seattle (US) in LEO that was launched on Wed, 29 Mar 2023 UTC via an FALCON 9 launch vehicle from the Air Force Eastern Test Range (AFETR). Payload-class satellites include a variety of spacecraft equipped with specific instruments for various scientific and technological missions. These include communications satellites like Starlink; space stations such as the ISS; scientific satellites like the Hubble; Earth observation satellites from companies like Planet Labs, Umbra, and HawkEye 360; GPS; miniature CubeSats for education and research; and military/defense satellites.

Not visible in the next 10 days
Identifier
56114, 2023-046X
Orbit
Decayed
Country
Flag of USUS
Related business
Manufacturer
SpaceX/Seattle
Mission
Decayed Commercial Communications
Bus & Motor
STARLINK, Unknown motor
Mass
305 kg wet, ~290 kg dry
Launch date (UTC)
2023-03-29 (3 years ago)
Launch vehicle
FALCON 9
Launch site
Air Force Eastern Test Range (AFETR)
Object type
Payload
Rocket body
Debris
Shape & HBR
Box + 1 Pan, 10.1 m
Radar Cross Section
11.087 m², Large (>1 m²)

Expand to show TLE details & history
Last TLE update: 1 year ago

TLE from 1 year ago
0 STARLINK-6103
1 56114U 23046X   25021.95260958  .17086015  95230-5  35054-3 0  9998
2 56114  42.9877 203.8445 0006054 328.9706 163.0860 16.46708340101030
Epoch: 2025-01-21T22:51Z
TLE epoch observation values (Epoch: 2025-01-21T22:51:45.467Z)
Latitude
30.52436°
Longitude
-119.61624°
Altitude
152.403 km
Speed
7.817 km/s
True Right ascension
22h 59m 29s
True Declination
30° 21' 37"
Sunlit
Object was in daylight at epoch
Visualization orbit readout
Latitude
Unknown
Longitude
Unknown
Altitude
Unknown
Speed
Unknown
Apparent Right ascension
Unknown
Apparent Declination
Unknown
Sunlit
N/A
Visualization observer readout
Local Sidereal Time
21:33:22
Azimuth
Unknown
Elevation
Unknown
Doppler factor
Unknown
Orbital elements
Apogee altitude
154.017 km
Perigee altitude
146.113 km
Semi-major axis
6,528.202 km
Eccentricity
0.00061
Inclination
42.9877°
RAAN
203.8445°
Arg. of periapsis
328.9706°
True anomaly
163.10617°
Mean anomaly
163.086°
Eccentric anomaly
163.09609°
Mean motion
4.11484 °/min
Orbital period
87.49 mins
BSTAR
0.00035054
Loading maneuver chart data...
Computing Atmospheric mass density...
Loading historical data...
Loading historical data...
Loading historical data...
Loading historical data...
Loading historical data...
Loading historical data...
Loading historical data...

Documentation

Showing up to 5 results
|